Weather reports worldwide

Advertisment
London/Heathrow Intl, United Kingdom (3772): temperature & dewpoint: 11.09.2019 12:00:00 - 17.09.2019 12:00:00 (BST)London/Heathrow Intl, United Kingdom (3772): wind speed & gusts: 11.09.2019 12:00:00 - 17.09.2019 12:00:00 (BST)London/Heathrow Intl, United Kingdom (3772): wind direction: 11.09.2019 12:00:00 - 17.09.2019 12:00:00 (BST)London/Heathrow Intl, United Kingdom (3772): reduced air pressure: 11.09.2019 12:00:00 - 17.09.2019 12:00:00 (BST)London/Heathrow Intl, United Kingdom (3772): visibility: 11.09.2019 12:00:00 - 17.09.2019 12:00:00 (BST)London/Heathrow Intl, United Kingdom (3772): sunshine duration: 11.09.2019 12:00:00 - 17.09.2019 12:00:00 (BST)London/Heathrow Intl, United Kingdom (3772): precipitation: 11.09.2019 12:00:00 - 17.09.2019 12:00:00 (BST)
Date & Time tt [°C] td [°C] ff [km/h] ff [kn] fx [km/h] fx [kn] dd ppp [hPa] vv [km] sd [min] rr [mm]
17.09.2019 12:00:00 16,7 6,2 13 7 - - N 1025,4 40 60 0,0
17.09.2019 11:00:00 16,0 7,3 9 5 - - N 1025,4 40 60 0,0
17.09.2019 10:00:00 14,2 7,6 9 5 - - N 1025,6 10 60 0,0
17.09.2019 09:00:00 12,4 7,9 8 4 - - N 1025,3 10 54 0,0
17.09.2019 08:00:00 10,4 8,0 8 4 - - NNW 1025,0 10 30 0,0
17.09.2019 07:00:00 9,6 7,6 5 3 - - NW 1024,3 10 0 0,0
17.09.2019 06:00:00 10,4 8,0 8 4 - - WNW 1024,0 10 0 0,0
17.09.2019 05:00:00 11,0 7,9 5 3 - - WNW 1023,8 30 0 0,0
17.09.2019 04:00:00 12,5 8,1 9 5 - - NNW 1023,7 30 0 0,0
17.09.2019 03:00:00 13,4 8,9 11 6 - - NNW 1023,7 30 0 0,0
17.09.2019 02:00:00 13,7 10,6 8 4 - - NW 1023,6 26 0 0,0
17.09.2019 01:00:00 14,7 12,0 5 3 - - - 1023,4 10 - 0,0
17.09.2019 00:00:00 15,9 12,2 8 4 - - N 1023,3 30 0 0,0
16.09.2019 23:00:00 16,2 12,4 5 3 - - - 1023,4 10 0 0,0
16.09.2019 22:00:00 16,5 12,6 8 4 - - NE 1023,3 10 0 0,0
16.09.2019 21:00:00 16,8 13,2 5 3 - - NNE 1023,1 24 0 0,0
16.09.2019 20:00:00 16,9 13,4 8 4 - - NE 1022,7 10 0 0,0
16.09.2019 19:00:00 17,2 14,0 8 4 - - NNE 1022,3 10 0 0,0
16.09.2019 18:00:00 17,6 15,0 8 4 - - N 1022,1 20 0 0,2
16.09.2019 17:00:00 17,2 16,1 8 4 - - N 1022,0 10 0 0,4
16.09.2019 16:00:00 17,7 15,9 9 5 - - N 1022,0 10 0 0,0
16.09.2019 15:00:00 19,9 14,3 11 6 - - NW 1021,8 10 0 0,0
16.09.2019 14:00:00 20,0 14,7 9 5 - - W 1021,8 10 0 0,0
16.09.2019 13:00:00 19,2 14,3 9 5 - - W 1021,8 15 0 0,0
16.09.2019 12:00:00 19,0 14,3 11 6 - - WNW 1021,9 27 0 0,0
16.09.2019 11:00:00 18,6 15,1 13 7 - - W 1022,0 10 0 0,0
16.09.2019 10:00:00 16,8 14,5 11 6 - - WNW 1021,9 10 0 0,0
16.09.2019 09:00:00 16,1 14,8 9 5 - - W 1021,7 10 0 0,2
16.09.2019 08:00:00 15,8 13,8 13 7 - - W 1021,5 10 0 0,0
16.09.2019 07:00:00 15,9 13,8 9 5 - - WNW 1021,2 13 0 0,0
16.09.2019 06:00:00 15,4 13,8 11 6 - - W 1021,0 7 0 0,0
16.09.2019 05:00:00 15,8 14,0 13 7 - - W 1021,3 8 0 0,0
16.09.2019 04:00:00 16,2 14,3 15 8 - - W 1021,4 8 0 0,0
16.09.2019 03:00:00 15,8 14,6 9 5 - - W 1022,0 12 0 0,0
16.09.2019 02:00:00 15,7 14,1 9 5 - - W 1022,2 14 0 0,0
16.09.2019 01:00:00 16,4 13,8 8 4 - - W 1022,5 10 - 0,0
16.09.2019 00:00:00 17,3 14,2 9 5 - - W 1022,5 35 0 0,0
15.09.2019 23:00:00 18,0 14,0 9 5 - - W 1022,6 30 0 0,0
15.09.2019 22:00:00 19,4 13,9 4 2 - - NW 1022,5 10 0 0,0
15.09.2019 21:00:00 20,8 13,9 5 3 - - NW 1022,6 10 0 0,0
15.09.2019 20:00:00 22,0 13,9 5 3 - - NW 1022,4 10 0 0,0
15.09.2019 19:00:00 23,0 13,8 9 5 - - NW 1022,3 10 18 0,0
15.09.2019 18:00:00 25,1 13,7 13 7 - - W 1022,2 50 60 0,0
15.09.2019 17:00:00 25,6 13,1 11 6 - - WNW 1022,4 10 60 0,0
15.09.2019 16:00:00 26,3 13,5 15 8 - - WNW 1022,9 10 60 0,0
15.09.2019 15:00:00 25,3 13,0 15 8 - - W 1023,2 10 60 0,0
15.09.2019 14:00:00 25,6 13,1 16 9 - - W 1023,9 10 60 0,0
15.09.2019 13:00:00 24,5 13,5 15 8 - - W 1024,4 10 60 0,0
15.09.2019 12:00:00 22,0 11,8 8 4 - - W 1025,1 10 60 0,0
15.09.2019 11:00:00 20,1 11,5 5 3 - - W 1025,3 40 60 0,0
15.09.2019 10:00:00 17,7 10,4 9 5 - - WSW 1025,4 30 60 0,0
15.09.2019 09:00:00 14,4 10,5 11 6 - - W 1025,5 29 48 0,0
15.09.2019 08:00:00 11,0 9,0 4 2 - - - 1025,5 10 0 0,0
15.09.2019 07:00:00 10,2 8,5 4 2 - - - 1025,4 10 0 0,0
15.09.2019 06:00:00 10,3 9,0 4 2 - - - 1025,4 10 0 0,0
15.09.2019 05:00:00 10,1 8,4 5 3 - - SSW 1025,4 10 0 0,0
15.09.2019 04:00:00 10,3 8,3 8 4 - - S 1025,8 10 0 0,0
15.09.2019 03:00:00 11,5 8,7 4 2 - - WSW 1026,4 30 0 0,0
15.09.2019 02:00:00 12,4 9,4 9 5 - - W 1026,9 10 0 0,0
15.09.2019 01:00:00 13,5 9,2 5 3 - - - 1027,3 10 - 0,0
15.09.2019 00:00:00 13,2 8,4 5 3 - - SW 1027,5 10 0 0,0
14.09.2019 23:00:00 15,5 8,7 8 4 - - SW 1027,9 30 0 0,0
14.09.2019 22:00:00 17,6 7,2 13 7 - - SW 1028,0 10 0 0,0
14.09.2019 21:00:00 18,9 6,1 11 6 - - SW 1028,5 10 0 0,0
14.09.2019 20:00:00 19,6 4,8 8 4 - - SW 1028,7 40 12 0,0
14.09.2019 19:00:00 21,1 3,8 8 4 - - SSW 1028,3 10 30 0,0
14.09.2019 18:00:00 22,3 1,6 11 6 - - SW 1028,8 45 36 0,0
14.09.2019 17:00:00 23,1 2,3 8 4 - - SSW 1029,1 40 60 0,0
14.09.2019 16:00:00 23,5 4,5 4 2 - - - 1029,9 10 60 0,0
14.09.2019 15:00:00 23,2 4,5 4 2 - - - 1030,7 10 60 0,0
14.09.2019 14:00:00 22,3 5,1 4 2 - - - 1031,6 10 60 0,0
14.09.2019 13:00:00 21,4 6,0 8 4 - - SE 1032,7 10 60 0,0
14.09.2019 12:00:00 20,4 6,5 8 4 - - ESE 1033,3 45 60 0,0
14.09.2019 11:00:00 18,7 8,5 8 4 - - E 1033,7 10 60 0,0
14.09.2019 10:00:00 17,0 10,1 4 2 - - - 1034,1 10 60 0,0
14.09.2019 09:00:00 13,9 9,9 2 1 - - - 1034,5 10 54 0,0
14.09.2019 08:00:00 10,7 8,4 2 1 - - N 1034,7 10 36 0,0
14.09.2019 07:00:00 9,6 8,1 4 2 - - - 1034,9 10 0 0,0
14.09.2019 06:00:00 9,6 8,3 4 2 - - N 1034,9 10 0 0,0
14.09.2019 05:00:00 9,6 7,7 2 1 - - - 1034,9 10 0 0,0
14.09.2019 04:00:00 10,4 8,5 2 1 - - NNE 1035,3 10 0 0,0
14.09.2019 03:00:00 11,5 9,1 5 3 - - N 1035,7 10 0 0,0
14.09.2019 02:00:00 12,2 9,2 5 3 - - N 1035,8 10 0 0,0
14.09.2019 01:00:00 12,8 9,0 5 3 - - E 1035,9 10 - 0,0
14.09.2019 00:00:00 13,9 10,2 8 4 - - ENE 1036,2 10 0 0,0
13.09.2019 23:00:00 14,0 10,7 11 6 - - E 1036,3 10 0 0,0
13.09.2019 22:00:00 15,4 11,4 15 8 - - E 1036,0 10 0 0,0
13.09.2019 21:00:00 16,7 3,4 9 5 - - NE 1035,8 10 0 0,0
13.09.2019 20:00:00 17,9 3,2 9 5 - - NNE 1035,1 45 12 0,0
13.09.2019 19:00:00 19,8 2,2 9 5 - - NE 1034,7 10 60 0,0
13.09.2019 18:00:00 21,0 2,8 11 6 - - NE 1034,5 50 60 0,0
13.09.2019 17:00:00 21,8 3,3 9 5 - - ENE 1034,6 10 60 0,0
13.09.2019 16:00:00 22,5 5,0 9 5 - - ENE 1034,5 10 60 0,0
13.09.2019 15:00:00 21,5 5,6 11 6 - - ENE 1034,7 45 60 0,0
13.09.2019 14:00:00 20,6 6,1 11 6 - - NE 1034,9 10 60 0,0
13.09.2019 13:00:00 19,2 6,0 13 7 - - N 1035,1 10 60 0,0
13.09.2019 12:00:00 18,9 7,0 11 6 - - NE 1035,3 55 60 0,0
13.09.2019 11:00:00 17,2 8,0 11 6 - - NNE 1035,3 10 60 0,0
13.09.2019 10:00:00 16,7 8,0 13 7 - - N 1035,2 10 60 0,0
13.09.2019 09:00:00 15,0 9,0 9 5 - - NNE 1034,6 10 54 0,0
13.09.2019 08:00:00 13,8 9,2 8 4 - - N 1033,9 10 42 0,0
13.09.2019 07:00:00 13,5 8,7 8 4 - - N 1033,3 10 0 0,0
13.09.2019 06:00:00 14,7 8,6 9 5 - - NW 1032,3 10 0 0,0
13.09.2019 05:00:00 16,0 10,8 9 5 - - NNW 1031,6 10 0 0,0
13.09.2019 04:00:00 16,7 12,8 8 4 - - NNW 1031,1 10 0 0,0
13.09.2019 03:00:00 17,3 15,6 13 7 - - W 1030,0 10 0 0,0
13.09.2019 02:00:00 17,4 15,7 13 7 - - W 1029,9 10 0 0,0
13.09.2019 01:00:00 17,9 15,2 13 7 - - WSW 1029,6 10 - 0,0
13.09.2019 00:00:00 17,9 15,3 15 8 - - WSW 1029,2 10 0 0,0
12.09.2019 23:00:00 18,4 15,3 16 9 - - WSW 1029,2 10 0 0,0
12.09.2019 22:00:00 18,9 15,5 18 10 - - SW 1028,8 10 0 0,0
12.09.2019 21:00:00 19,0 15,6 18 10 - - SW 1028,4 10 0 0,0
12.09.2019 20:00:00 19,1 15,3 22 12 - - SW 1027,9 10 0 0,0
12.09.2019 19:00:00 20,5 15,5 22 12 - - SSW 1027,3 35 30 0,0
12.09.2019 18:00:00 21,9 15,8 24 13 - - SW 1027,0 35 0 0,0
12.09.2019 17:00:00 22,4 15,2 26 14 - - SW 1026,7 10 6 0,0
12.09.2019 16:00:00 24,9 15,4 22 12 - - SW 1026,7 10 24 0,0
12.09.2019 15:00:00 24,3 14,3 26 14 - - WSW 1027,0 10 48 0,0
12.09.2019 14:00:00 24,3 13,8 26 14 - - WSW 1027,1 10 36 0,0
12.09.2019 13:00:00 22,6 14,0 29 16 - - WSW 1027,5 10 18 0,0
12.09.2019 12:00:00 22,0 15,4 24 13 - - WSW 1027,8 65 6 0,0
12.09.2019 11:00:00 20,7 16,0 21 11 - - SW 1027,8 10 0 0,0
12.09.2019 10:00:00 18,7 14,5 15 8 - - SW 1027,6 10 12 0,0
12.09.2019 09:00:00 16,9 13,9 15 8 - - SW 1027,1 10 6 0,0
12.09.2019 08:00:00 15,0 13,1 13 7 - - SW 1026,9 10 6 0,0
12.09.2019 07:00:00 14,0 12,6 16 9 - - WSW 1026,5 10 0 0,0
12.09.2019 06:00:00 13,3 12,4 15 8 - - WSW 1025,7 10 0 0,0
12.09.2019 05:00:00 12,7 12,3 13 7 - - WSW 1025,6 10 0 0,0
12.09.2019 04:00:00 13,4 12,0 11 6 - - WSW 1025,3 10 0 0,0
12.09.2019 03:00:00 14,6 12,8 11 6 - - WSW 1025,0 10 0 0,0
12.09.2019 02:00:00 15,3 12,7 11 6 - - WSW 1024,6 35 0 0,0
12.09.2019 01:00:00 15,4 12,8 11 6 - - WSW 1024,1 10 - 0,0
12.09.2019 00:00:00 15,4 13,1 13 7 - - WSW 1023,9 40 0 0,0
11.09.2019 23:00:00 16,5 13,6 16 9 - - WSW 1023,4 10 0 0,0
11.09.2019 22:00:00 17,3 14,2 15 8 - - W 1023,1 10 0 0,0
11.09.2019 21:00:00 18,3 14,7 16 9 - - W 1022,3 10 0 0,0
11.09.2019 20:00:00 19,1 15,0 22 12 - - W 1021,4 10 6 0,0
11.09.2019 19:00:00 20,6 14,9 29 16 - - WSW 1020,6 10 24 0,0
11.09.2019 18:00:00 20,9 15,8 24 13 - - WSW 1020,1 10 0 0,0
11.09.2019 17:00:00 21,0 16,1 28 15 - - SW 1020,0 10 0 0,0
11.09.2019 16:00:00 21,3 16,0 26 14 - - WSW 1019,7 10 0 0,0
11.09.2019 15:00:00 20,6 15,7 24 13 - - WSW 1019,5 10 0 0,0
11.09.2019 14:00:00 20,6 15,6 28 15 - - WSW 1019,2 10 0 0,0
11.09.2019 13:00:00 21,0 14,8 28 15 50 27 WSW 1019,2 10 0 0,0
11.09.2019 12:00:00 21,2 15,1 31 17 - - WSW 1018,9 10 0 0,0

tt = temperature
td = dewpoint
ff = wind speed
fx = gusts
dd = wind direction
ppp = reduced air pressure
vv = visibility
sd = sunshine duration
rr = precipitation

Next stations